Powrót do katalogu

STARLINK-2756

AktywnyŁącznośćVLEO
NORAD 48683·PAYLOAD·🇺🇸 United States

Wystrzelony May 26, 2021 z Cape Canaveral Space Force Station

Loading…

Następne Przeloty (najbliższe 24 godziny)

TLE

ŚwieżeSource: CelesTrak SupGP

Epoka: Sep 14, 2026, 21:34 UTC

1 48683C 21044AX  26257.89909722  .00099005  00000+0  31809-2 0  2570
2 48683  53.1582 264.6573 0001213 100.1113   6.9974 15.31681079    19

Śledź STARLINK-2756 w czasie rzeczywistym z AllMySat

Download on the App Store